User: anonymous   Login
Location: Unnamed
(51.8936°N, 11.0665°E)
Time: 14:44:58
(UTC+02:00)
Language:

PicSat - Orbit

View from above orbital plane
View from above orbital plane
View from above satellite
View from above satellite

Ground track
Ground track

The orbit data is extracted from the following two-line orbital elements,

1 43131U 18004W   21266.76194458  .00005645  00000-0  20847-3 0  9990
2 43131  97.4048 342.0737 0007578 204.5617 155.5262 15.28124299205774
Epoch (UTC): 23 September 2021 18:17:12
Eccentricity: 0.0007578
inclination: 97.4048°
perigee height: 476 km
apogee height: 486 km
right ascension of ascending node: 342.0737°
argument of perigee: 204.5617°
revolutions per day: 15.28124299
mean anomaly at epoch: 155.5262°
orbit number at epoch: 20577

The dashed part of the orbit path shows where the satellite is in the earth's shadow,  

DLR